Location: Vancouver
(49.2500°N, 123.1330°W)
Time: 15:18:22
(UTC-07:00)

A-11 Canister half - Visible Passes

Search period start: 28 August 2016 00:00
Search period end: 07 September 2016 00:00
Orbit: 1524 x 1685 km, 47.3° (Epoch: 27 August)

Date Brightness Start Highest point End Pass type
(mag) Time Alt. Az. Time Alt. Az. Time Alt. Az.
28 Aug 9.0 00:38:43 10° W 00:48:46 75° SSW 00:52:41 43° ESE visible
28 Aug 9.6 02:43:51 10° WNW 03:02:31 10° SSE 02:50:49 38° WSW visible
28 Aug10.705:01:08SSW05:01:08SSW04:48:56Wvisible
28 Aug 9.0 22:12:10 10° WSW 22:22:06 77° SSE 22:32:16 10° E visible
29 Aug 9.0 00:17:06 10° W 00:27:10 76° SSW 00:30:37 48° ESE visible
29 Aug 9.6 02:22:14 10° WNW 02:28:48 37° WSW 02:28:48 37° WSW visible
29 Aug11.004:43:40S04:43:40S04:26:59Wvisible
29 Aug 9.1 21:50:36 10° WSW 22:00:29 76° SSE 22:10:39 10° E visible
29 Aug 9.0 23:55:31 10° W 00:05:34 77° SSW 00:09:02 47° ESE visible
30 Aug 9.6 02:00:37 10° WNW 02:07:15 38° WSW 02:07:15 38° WSW visible
30 Aug 9.1 21:29:01 10° WSW 21:38:53 75° SSE 21:49:01 10° E visible
30 Aug 9.0 23:33:55 10° W 23:43:56 77° S 23:47:43 45° ESE visible
31 Aug 9.6 01:38:59 10° WNW 01:45:57 41° WSW 01:45:57 41° WSW visible
31 Aug 9.1 21:07:28 10° WSW 21:17:17 74° SSE 21:27:24 10° E visible
31 Aug 9.0 23:12:19 10° W 23:22:20 78° S 23:26:32 42° ESE visible
01 Sep 9.5 01:17:22 10° WNW 01:24:46 44° WSW 01:24:46 44° WSW visible
01 Sep 9.1 20:45:55 10° WSW 20:55:41 73° SSE 21:05:46 10° E visible
01 Sep 9.0 22:50:44 10° W 23:00:43 79° S 23:05:27 38° ESE visible
02 Sep 9.4 00:55:46 10° WNW 01:03:42 47° WSW 01:03:42 47° WSW visible
02 Sep 9.2 20:24:21 10° WSW 20:34:05 72° SSE 20:44:08 10° E visible
02 Sep 9.0 22:29:08 10° W 22:39:06 79° S 22:44:26 33° ESE visible
03 Sep 9.3 00:34:10 10° WNW 00:42:41 50° SW 00:42:41 50° SW visible
03 Sep 10.8 02:40:26 10° W 02:40:56 11° W 02:40:56 11° W visible
03 Sep 9.2 20:02:48 10° WSW 20:12:29 71° SSE 20:22:32 10° E visible
03 Sep 9.0 22:07:33 10° W 22:17:30 80° S 22:23:29 29° ESE visible
04 Sep 9.2 00:12:33 10° WNW 00:21:44 53° SW 00:21:44 53° SW visible
04 Sep 10.8 02:18:41 10° W 02:20:00 13° W 02:20:00 13° W visible
04 Sep 9.1 21:45:58 10° W 21:55:53 80° S 22:02:35 25° ESE visible
04 Sep 9.2 23:50:58 10° WNW 00:00:37 55° SSW 00:00:50 55° SSW visible
05 Sep 10.7 01:56:56 10° W 01:59:06 15° W 01:59:06 15° W visible
05 Sep 9.1 21:24:23 10° W 21:34:16 80° S 21:41:43 21° E visible
05 Sep 9.1 23:29:22 10° WNW 23:39:02 57° SSW 23:39:59 55° S visible
06 Sep 10.6 01:35:13 10° W 01:38:14 18° W 01:38:14 18° W visible
06 Sep 9.1 21:02:48 10° W 21:12:40 81° S 21:20:53 18° E visible
06 Sep 9.1 23:07:46 10° WNW 23:17:27 58° SSW 23:19:09 53° S visible
